NOAA 16 DEB, 41424

Orbit data source: Space-Track

NOAA 16 DEB, 41424 is space debris in SSO originally from a launch on Thu, 21 Sep 2000 UTC launched from the Air Force Western Test Range (AFWTR). Debris objects in space refer to the collection of defunct objects orbiting the Earth. Examples of debris include non-operational satellites, rocket bodies, and fragments generated from explosions, collisions, or faulty payload assembly.

Loading next visibility...
NOAA 16 DEB details
Identifier
41424, 2000-055LD
Orbit
SSO
Last TLE update18 hours ago
Origin
Flag of USNOAA (US)
ManufacturerUnknown
MissionSpacecraft
Bus & MotorUnknown
MassUnknown
Launch date (UTC)
2000-09-21 (24 years ago)
Launch vehicleUnknown
Launch site
Air Force Western Test Range (AFWTR)
Object type
Payload
Rocket body
Debris
Shape & HBRUnknown
Radar Cross SectionSmall (<0.1 m²)

Expand to show TLE details & history

TLE from 18 hours ago
0 NOAA 16 DEB
1 41424U 00055LD  24347.61830100  .00007084  00000-0  26685-2 0  9992
2 41424  98.9293 112.8647 0024531 335.4794  24.5220 14.31573478455615
Epoch: 2024-12-12T14:50Z
Definitive object data (Epoch: 2024-12-12T14:50:21.206Z)
Latitude0.00001°
Longitude168.48029°
Altitude773.413 km
Speed7.476 km/s
True Right ascension07h 31m 27s
True Declination0° 00' 00"
Sunlit
Object was in full shadow at TLE epoch
Visualization TLE readout
Latitude-39.8801°
Longitude-18.26058°
Altitude808.508 km
Speed7.444 km/s
Apparent Right ascension19h 06m 10s
Apparent Declination-39° 43' 12"
Sunlit
Object is in daylight
Visualization observer readout
Local Sidereal Time07:08:04
Azimuth61.848° ENE
Elevation-89.586°
Doppler factor1
Orbital elements
Apogee altitude801.198 km
Perigee altitude766.061 km
Semi-major axis7,161.767 km
Eccentricity0.0024531
Inclination98.9293°
RAAN112.8647°
Arg. of periapsis335.4794°
True anomaly24.639°
Mean anomaly24.522°
Eccentric anomaly24.58047°
Mean motion3.58107 °/min
BSTAR0.0026685
Orbital period100.53 mins
Loading maneuver chart data...
Loading historical data...
Loading historical data...
Loading historical data...
Loading historical data...
Loading historical data...
Loading historical data...
Loading historical data...

NOAA 16 DEB Visibility forecast

Observer location: undefined°, undefined

Span
Click to sort rows by Start time (UTC) header in descending order
Start Az.
Max El. time (UTC)
Max El. Az.
Max El.
End time (UTC)
End Az.
8 mins2024-12-13 09:24:26.376Z209.539° SW2024-12-13 09:28:26.376Z269.054° W24.946°2024-12-13 09:32:26.376Z321.648° NNW
8 mins2024-12-13 21:37:26.376Z10.048° NNE2024-12-13 21:40:26.376Z340.201° N43.823°2024-12-13 21:45:26.376Z199.863° SSW
6 mins2024-12-14 07:15:26.376Z102.031° ESE2024-12-14 07:18:26.376Z64.148° ENE17.505°2024-12-14 07:21:26.376Z25.202° NE
|